This demonstration page uses our WeatherBlox Daily Observations layout. Learn more.

41.55636, -103.73856

Hourly Observations for January 13, 2019

Temp ( °F °C ) Dew Point ( °F °C ) Humidity (%) Winds ( mph kmh ) Pressure ( in mb ) Visibility ( mi km ) Precip ( " mm )
12:13 am 00:13 Cloudy with Freezing Fog 20 -6.7 20 -6.7 100 100 Calm 30.48 1032 0.5 0.804672 0 0
12:31 am 00:31 Mostly Cloudy with Mist and Fog 20 -6.7 19 -7.2 96 96 Calm 30.48 1032 1 1.609344 0 0
12:38 am 00:38 Mostly Cloudy with Freezing Fog 19 -7 19 -7 100 100 Calm 30.48 1032 0.5 0.804672 0 0
12:45 am 00:45 Mostly Cloudy with Freezing Fog 20 -6.7 19 -7.2 96 96 Calm 30.48 1032 0.25 0.402336 0 0
12:53 am 00:53 Mostly Cloudy with Freezing Fog 20 -6.7 17 -8.3 89 89 Calm 30.3 1026 0.25 0.402336 0 0
1:29 am 01:29 Mostly Cloudy with Mist and Fog 19 -7.2 16 -8.9 88 88 N 3 6 30.48 1032 0.75 1.207008 0 0
1:34 am 01:34 Mostly Cloudy with Mist and Fog 19 -7 18 -8 93 93 N 3 6 30.48 1032 2 3.218688 0 0
1:41 am 01:41 Partly Cloudy 17 -8.3 15 -9.4 92 92 N 3 6 30.48 1032 7 11.265408 0 0
1:53 am 01:53 Mostly Clear 17 -8.3 14 -10 88 88 Calm 30.33 1027 10 16.09344 0 0
2:08 am 02:08 Mostly Cloudy with Mist and Fog 16 -9 14 -10 93 93 Calm 30.5 1033 1.5 2.414016 0 0
2:18 am 02:18 Mostly Cloudy with Freezing Fog 18 -8 16 -9 93 93 Calm 30.48 1032 0.5 0.804672 0 0
2:25 am 02:25 Mostly Cloudy with Freezing Fog 17 -8.3 15 -9.4 92 92 Calm 30.48 1032 0.25 0.402336 0 0
2:53 am 02:53 Mostly Cloudy with Freezing Fog 17 -8.3 14 -10 88 88 Calm 30.33 1027 0.25 0.402336 0 0
3:07 am 03:07 Mostly Cloudy with Freezing Fog 17 -8.3 14 -10 88 88 NW 3 6 30.53 1034 0.5 0.804672 0 0
3:17 am 03:17 Mostly Cloudy with Mist and Fog 15 -9.4 13 -10.6 91 91 WNW 3 6 30.5 1033 2 3.218688 0 0
3:21 am 03:21 Partly Cloudy 15 -9.4 12 -11.1 88 88 NW 5 7 30.5 1033 7 11.265408 0 0
3:44 am 03:44 Mostly Cloudy with Mist and Fog 14 -10 10 -12 85 85 NNW 7 11 30.5 1033 2.5 4.02336 0 0
3:49 am 03:49 Mostly Cloudy with Mist and Fog 16 -9 12 -11 86 86 NW 7 11 30.5 1033 0.75 1.207008 0 0
3:53 am 03:53 Mostly Cloudy with Mist and Fog 16 -8.9 14 -10 92 92 NW 6 9 30.33 1027 0.75 1.207008 0 0
4:01 am 04:01 Cloudy with Mist and Fog 16 -8.9 14 -10 92 92 NW 6 9 30.5 1033 2 3.218688 0 0
4:09 am 04:09 Cloudy with Mist and Fog 16 -8.9 13 -10.6 88 88 NNW 7 11 30.5 1033 5 8.04672 0 0
4:15 am 04:15 Cloudy with Mist and Fog 16 -8.9 13 -10.6 88 88 NNW 7 11 30.5 1033 1.5 2.414016 0 0
4:25 am 04:25 Mostly Cloudy with Freezing Fog 15 -9.4 13 -10.6 91 91 NW 5 7 30.5 1033 0.5 0.804672 0 0
4:43 am 04:43 Mostly Cloudy with Mist and Fog 15 -9.4 12 -11.1 88 88 NW 6 9 30.5 1033 1 1.609344 0 0
4:53 am 04:53 Mostly Cloudy with Mist and Fog 14 -10 12 -11.1 92 92 NW 6 9 30.36 1028 3 4.828032 0 0
5:07 am 05:07 Partly Cloudy 13 -10.6 11 -11.7 92 92 NNW 6 9 30.53 1034 9 14.484096 0 0
5:53 am 05:53 Clear 15 -9.4 12 -11.1 88 88 NNW 8 13 30.36 1028 10 16.09344 0 0
6:53 am 06:53 Clear 14 -10 11 -11.7 88 88 WNW 5 7 30.39 1029 10 16.09344 0 0
7:53 am 07:53 Sunny 17 -8.3 13 -10.6 84 84 NW 6 9 30.39 1029 10 16.09344 0 0
8:53 am 08:53 Sunny 22 -5.6 19 -7.2 89 89 NW 6 9 30.39 1029 10 16.09344 0 0
9:53 am 09:53 Sunny 27 -2.8 24 -4.4 89 89 WNW 6 9 30.39 1029 10 16.09344 0 0
10:53 am 10:53 Sunny 31 -0.6 25 -3.9 79 79 WNW 5 7 30.36 1028 10 16.09344 0 0
11:53 am 11:53 Sunny 37 2.8 24 -4.4 59 59 NW 6 9 30.33 1027 10 16.09344 0 0
12:53 pm 12:53 Sunny 40 4.4 24 -4.4 53 53 NW 6 9 30.3 1026 10 16.09344 0 0
1:53 pm 13:53 Sunny 42 5.6 25 -3.9 51 51 W 3 6 30.27 1025 10 16.09344 0 0
2:53 pm 14:53 Sunny 44 6.7 24 -4.4 45 45 W 5 7 30.27 1025 10 16.09344 0 0
3:53 pm 15:53 Sunny 44 6.7 23 -5 43 43 Calm 30.27 1025 10 16.09344 0 0
4:53 pm 16:53 Clear 36 2.2 21 -6.1 55 55 Calm 30.3 1026 10 16.09344 0 0
5:53 pm 17:53 Clear 31 -0.6 19 -7.2 61 61 Calm 30.33 1027 10 16.09344 0 0
6:53 pm 18:53 Clear 26 -3.3 19 -7.2 75 75 Calm 30.36 1028 10 16.09344 0 0
7:53 pm 19:53 Clear 19 -7.2 15 -9.4 84 84 undefined N/A 30.36 1028 10 16.09344 0 0
8:53 pm 20:53 Clear 20 -6.7 16 -8.9 85 85 NW 9 15 30.36 1028 10 16.09344 0 0
9:53 pm 21:53 Clear 21 -6.1 14 -10 74 74 NW 10 17 30.33 1027 10 16.09344 0 0
10:53 pm 22:53 Clear 19 -7.2 12 -11.1 74 74 NW 9 15 30.36 1028 10 16.09344 0 0
11:53 pm 23:53 Clear 19 -7.2 13 -10.6 77 77 NW 12 19 30.3 1026 10 16.09344 0 0

Powered by AerisWeather